RH
77 80 79 82 84 88 92 90 94 96 96 96 93 93 91 87 86 85 84 84 87 88 82 80 81 79 81 79 76 75 77 75 71 70 68 63 60 59 55 52 48 43 41 40 38 38 40 41 41 41 41 44 46 45 44 42 39 38 39 39 41 42 44 45 46 46 46 45 45 45 45 44 43 43 44 45 44 44 44 43 43 42 42 42 42 43 43 42 41 43 45 47 49 50 50 50 51
79 82 83 85 86 91 92 90 95 97 98 96 93 92 90 88 84 83 82 85 90 85 81 81 81 80 77 75 72 73 78 77 69 65 63 61 61 59 53 49 45 42 40 39 38 38 39 39 39 39 40 42 42 41 39 38 36 36 38 40 42 44 47 47 48 48 48 47 46 46 46 46 45 46 49 48 46 47 46 44 44 44 44 44 45 45 45 43 45 46 47 50 52 52 51 51 51
79 80 80 83 87 91 91 92 95 97 97 93 93 90 88 87 82 83 82 85 88 82 83 85 85 81 76 74 73 75 77 76 69 62 62 62 60 58 53 48 44 41 39 38 38 37 37 37 37 37 38 39 38 36 35 35 36 38 41 43 45 47 49 49 49 49 48 46 45 46 46 47 48 50 52 51 50 50 49 46 45 47 47 47 47 47 47 46 48 50 49 51 52 52 51 49 46
78 79 80 83 87 91 92 94 94 95 96 91 92 90 86 85 80 84 86 86 86 83 85 85 83 80 76 75 73 75 74 75 70 61 60 61 57 54 51 46 43 40 38 37 35 35 35 35 35 35 35 35 34 34 35 37 39 42 43 44 45 47 49 49 49 49 47 45 45 45 46 48 49 51 54 55 54 53 52 49 47 47 48 48 49 49 50 50 51 53 53 53 51 49 48 45 41
77 79 81 84 88 91 92 93 93 94 93 89 91 88 86 86 81 85 87 88 86 85 85 81 80 78 76 74 72 73 71 71 69 62 59 59 57 52 47 43 41 39 37 34 31 30 31 33 33 33 33 33 33 35 37 39 40 41 42 43 45 46 47 47 47 47 46 44 44 46 48 50 51 52 53 55 56 55 54 52 49 48 48 50 51 52 53 53 53 55 54 51 47 44 43 41 37
76 78 80 84 85 88 92 92 92 95 90 88 91 86 86 87 83 84 85 86 86 85 84 79 76 74 72 72 72 71 68 65 65 62 58 56 55 50 45 42 40 39 35 30 27 26 27 29 30 32 32 33 35 36 38 38 39 40 41 43 45 45 45 43 43 45 44 43 44 47 51 52 52 53 52 53 56 56 56 55 52 50 50 51 52 53 55 57 56 55 52 49 46 46 46 42 39
75 76 79 82 84 85 91 92 89 92 87 86 91 86 86 87 83 83 82 82 84 83 81 77 74 70 69 68 68 67 65 62 62 61 57 54 52 49 45 43 40 37 31 26 25 24 24 26 29 31 33 35 36 37 37 38 39 40 41 44 45 45 43 41 42 43 44 43 45 49 51 52 53 53 53 53 55 56 56 56 54 52 52 51 51 53 55 58 58 54 51 49 48 49 48 43 40
75 76 76 81 86 86 90 92 87 88 86 86 88 82 84 87 84 82 81 82 84 83 79 75 72 70 68 66 64 64 64 62 60 58 56 52 50 48 46 42 37 31 27 23 22 22 24 27 31 34 36 37 37 38 39 39 39 40 42 44 45 43 41 41 42 44 44 45 46 50 51 52 53 53 53 54 56 56 55 56 56 55 53 53 52 52 55 58 58 54 51 50 49 49 47 41 39
72 74 76 81 88 87 87 88 86 86 84 84 84 81 84 86 84 83 83 83 82 82 79 74 72 69 69 67 63 62 62 60 59 59 54 49 47 47 45 40 32 26 23 21 22 24 28 31 35 37 37 37 38 40 39 39 39 41 43 43 43 42 41 42 43 44 44 45 47 50 51 51 53 53 53 53 54 56 56 56 56 57 56 54 54 54 55 57 57 55 52 50 49 49 46 40 38
69 72 76 82 88 89 87 83 84 85 80 80 80 82 85 83 83 84 82 81 80 82 79 75 72 68 67 66 63 60 60 59 59 58 53 50 49 47 45 39 28 22 20 21 24 27 31 34 37 37 36 37 38 38 37 37 38 40 42 42 42 42 43 43 44 44 45 46 47 49 49 50 51 52 52 52 53 54 55 56 55 55 55 54 54 55 57 58 58 56 53 52 50 50 46 41 39
69 73 76 82 88 88 86 81 83 85 82 80 78 81 83 81 82 82 78 78 79 78 76 74 72 66 66 67 65 61 60 59 58 56 52 52 50 46 45 37 25 20 19 22 27 30 34 35 36 36 35 36 37 36 36 37 38 39 41 42 43 43 44 44 45 45 46 46 47 48 47 47 49 50 51 52 52 53 54 55 53 51 52 53 53 55 57 58 57 56 54 52 50 49 46 42 40
71 76 77 81 83 84 84 83 83 82 84 83 82 82 79 81 83 80 76 77 75 72 71 72 70 66 68 69 64 61 60 58 58 55 50 50 46 43 45 34 23 20 19 24 28 31 34 34 35 35 35 36 35 36 36 36 37 38 42 44 45 43 44 44 43 44 45 45 45 45 44 46 48 50 51 52 52 52 52 52 52 51 51 52 52 54 56 57 57 56 54 52 49 47 46 43 40
67 73 77 79 79 83 83 82 80 81 86 84 85 83 78 80 82 79 75 75 73 71 72 71 69 66 68 68 63 61 60 57 56 54 49 47 42 41 43 33 22 20 21 24 28 31 32 33 34 35 35 36 36 35 36 37 38 39 43 43 43 42 43 42 42 42 43 44 45 45 46 47 49 51 51 52 53 52 52 53 55 54 52 52 51 52 53 55 56 55 54 52 48 46 45 43 40
63 65 73 79 79 84 82 80 78 80 88 85 82 81 81 81 78 78 74 73 74 73 73 71 68 65 66 67 63 61 58 55 55 52 47 43 40 40 40 30 21 19 21 24 27 30 31 32 33 35 35 35 35 36 38 39 39 39 40 40 39 39 39 40 41 42 43 46 48 49 50 49 51 52 51 52 53 53 54 55 55 55 55 53 51 51 52 53 53 53 52 52 49 46 45 45 41
60 61 70 77 78 80 77 80 78 80 89 85 81 81 84 78 73 78 74 71 73 71 71 71 69 65 64 64 61 59 55 52 51 48 42 40 39 40 37 27 21 20 21 24 26 29 31 31 33 34 35 35 34 36 38 38 38 37 36 35 34 33 35 37 40 42 45 48 51 53 54 52 52 52 51 51 53 54 55 55 54 55 57 55 53 52 52 52 51 51 51 50 50 48 46 43 40
58 61 71 75 76 77 75 78 78 83 87 82 82 84 83 75 74 79 74 70 68 68 70 71 71 65 62 62 60 57 53 51 49 44 39 38 38 38 37 28 23 23 22 24 25 29 31 31 32 35 36 35 34 36 37 36 35 35 32 30 30 31 33 37 41 46 50 51 52 53 54 52 52 51 52 52 53 53 54 55 55 55 56 56 55 53 51 51 51 51 50 49 49 48 45 42 38
57 62 70 72 74 75 74 75 77 84 86 81 82 84 82 76 76 76 73 70 66 69 70 69 69 65 63 62 61 57 53 51 47 43 39 38 36 37 36 31 28 26 24 24 24 28 31 32 33 36 36 35 34 36 35 35 34 31 29 28 29 31 35 40 44 48 52 52 52 52 53 53 53 52 52 54 54 53 53 54 56 56 56 56 55 51 50 51 51 51 51 50 49 48 45 42 40
58 62 66 69 73 73 72 73 75 81 84 83 81 82 84 79 77 75 72 70 67 69 70 68 68 65 66 64 62 58 53 52 49 45 41 37 35 36 34 32 31 28 26 26 25 28 31 33 35 36 36 35 35 34 33 32 30 28 27 28 31 35 41 44 46 48 49 49 50 52 54 55 56 52 51 53 55 55 53 53 55 57 57 57 55 52 50 50 51 52 52 51 50 50 47 44 45
56 59 63 65 68 69 69 72 75 77 79 82 82 82 83 79 78 77 73 70 69 70 69 69 68 67 67 67 64 59 56 55 52 46 41 37 35 35 32 32 33 30 31 30 28 30 32 34 38 38 36 36 34 31 31 29 27 26 27 30 36 42 45 45 46 47 47 47 48 52 53 56 57 55 52 52 54 55 54 53 54 57 58 57 55 51 50 51 52 54 54 53 52 51 48 47 50
53 56 59 59 63 66 68 70 72 74 76 79 82 80 77 77 79 78 76 74 73 70 66 66 67 65 64 65 63 58 58 57 52 46 41 38 35 34 32 31 32 32 34 31 29 33 34 37 41 40 38 36 32 30 29 26 24 25 28 35 39 44 46 44 45 47 47 46 48 50 53 55 57 56 55 54 54 55 54 53 53 56 58 57 55 52 52 53 55 56 55 55 54 53 52 53 57
51 54 53 51 58 65 67 68 69 72 74 76 79 78 74 75 79 78 76 76 75 70 66 64 63 62 60 61 61 57 58 56 50 46 42 38 35 35 32 30 32 32 32 30 30 32 35 40 43 42 40 35 30 29 26 23 24 26 32 38 40 42 43 43 45 46 45 47 49 49 50 53 55 56 56 55 54 53 53 52 52 54 56 56 56 54 54 55 57 58 58 56 55 55 56 59 63
48 52 51 49 55 63 65 66 68 70 70 73 76 77 75 75 77 76 74 75 75 71 68 64 60 61 58 57 59 57 58 54 47 45 43 39 35 34 31 30 30 30 32 31 29 29 33 41 44 42 41 34 29 28 25 22 24 29 35 39 39 39 39 42 45 44 45 47 47 47 50 51 53 54 56 55 52 51 51 52 52 52 52 53 55 55 56 58 58 59 60 58 57 58 59 61 64
46 49 50 50 52 58 62 62 66 68 68 72 73 73 75 77 78 75 73 74 73 71 69 63 57 59 59 55 57 56 55 53 46 44 45 41 36 34 31 29 28 30 32 32 29 26 30 40 44 42 40 33 29 28 25 22 25 31 35 37 38 36 37 40 43 44 47 50 50 50 52 52 52 53 53 53 52 51 51 51 53 54 53 52 52 52 54 56 57 60 60 60 59 59 59 59 58
44 46 46 49 51 54 59 59 61 64 66 70 69 70 74 77 77 73 72 71 70 70 67 61 54 55 58 56 57 56 54 51 47 47 47 43 37 36 32 29 28 29 32 33 31 26 28 40 44 43 40 35 31 29 26 24 27 31 33 36 37 35 37 40 42 45 49 53 56 57 55 55 56 56 55 53 53 53 52 51 52 54 55 55 54 52 49 50 53 54 56 57 56 54 54 53 50
42 44 42 44 47 51 56 57 58 61 66 67 64 68 72 74 73 71 70 69 70 68 65 60 53 53 58 57 56 57 55 52 49 48 49 44 39 38 34 30 28 29 32 34 33 28 27 38 45 43 41 38 35 33 30 27 28 33 33 35 37 36 37 39 43 49 53 57 59 59 57 56 58 58 58 55 53 54 53 52 51 52 53 56 57 55 51 49 50 50 50 51 51 51 52 51 49
41 43 40 39 43 46 50 55 56 57 63 64 62 65 70 72 73 71 69 67 68 66 62 58 52 52 56 56 55 56 56 52 48 50 50 47 43 39 34 31 28 29 32 34 35 32 25 32 44 45 42 41 38 36 34 31 31 34 34 34 36 35 35 40 47 51 55 59 60 60 59 57 57 58 59 57 56 56 55 52 51 52 51 52 54 54 53 52 52 52 51 51 51 55 58 56 53
38 39 38 37 38 40 43 53 55 54 60 63 64 66 69 70 71 72 70 67 67 65 59 55 53 53 53 56 57 55 57 54 49 51 51 49 46 41 35 31 29 29 30 33 36 36 27 28 39 45 44 42 39 37 36 34 35 35 34 35 35 35 37 44 51 51 53 56 59 61 60 59 59 58 59 59 57 57 56 53 53 53 51 51 52 52 52 52 52 52 53 54 54 55 58 58 56
34 34 34 33 33 36 39 45 50 51 55 60 63 65 65 65 66 68 69 68 68 65 60 54 53 55 54 57 59 56 58 56 49 50 49 48 47 42 36 33 30 29 30 31 35 38 32 26 32 41 43 41 39 37 36 35 36 35 35 36 35 36 41 46 52 51 50 53 57 58 58 59 60 60 60 59 58 58 56 54 53 52 51 51 50 51 52 51 51 53 53 53 53 54 56 56 56
30 31 31 31 30 34 37 38 42 44 49 56 59 61 61 59 62 64 65 68 70 67 62 56 55 56 55 57 59 58 60 58 51 50 48 46 46 42 37 34 30 29 29 28 32 37 35 28 28 34 38 39 39 38 36 34 35 35 35 36 34 38 44 47 50 49 47 50 53 55 56 56 59 61 60 60 58 57 58 55 52 51 51 50 47 47 49 49 51 54 53 53 53 54 55 55 55
25 27 29 30 29 30 34 35 36 36 43 51 54 59 60 55 57 61 63 67 71 70 65 59 58 57 55 57 58 57 59 58 53 49 46 43 44 42 38 36 31 29 29 26 28 34 35 32 29 29 34 37 38 39 35 33 35 35 36 35 34 40 45 44 46 47 47 50 50 53 56 56 59 59 58 59 57 56 57 56 52 50 50 49 46 46 48 48 50 52 52 53 54 54 55 54 54
21 23 25 27 28 27 28 30 31 31 36 43 49 56 60 56 57 61 64 68 71 71 68 63 60 58 56 56 58 57 56 58 55 50 46 41 42 43 40 38 34 30 30 26 26 32 33 34 32 27 30 35 36 37 35 33 34 36 37 35 34 40 44 43 42 42 45 49 49 50 52 54 57 58 58 57 55 54 55 56 54 52 52 50 46 45 46 48 49 49 51 53 55 54 55 54 53
21 22 23 23 25 26 27 27 29 31 32 37 44 52 59 59 59 62 65 66 70 70 69 67 62 58 56 54 55 56 57 58 57 54 50 42 41 44 41 39 36 31 30 27 26 29 30 34 34 26 26 33 36 35 34 34 34 37 38 34 34 38 43 42 38 40 43 45 46 47 48 51 55 58 59 57 54 52 53 56 54 52 55 52 46 44 45 48 48 48 51 53 55 55 54 52 51
20 21 22 22 22 25 26 26 27 31 32 35 40 46 55 59 59 64 65 64 67 69 69 69 65 61 56 53 53 55 56 57 57 56 53 45 41 43 42 38 35 32 30 29 27 27 28 33 36 28 23 30 37 34 33 33 32 37 39 35 35 39 42 41 39 43 44 42 42 45 46 50 54 56 58 57 54 52 52 55 55 54 55 53 49 46 45 47 49 49 50 50 52 53 52 52 51
19 18 19 20 21 23 26 26 26 28 31 33 37 41 49 55 57 61 63 62 65 68 69 69 67 65 59 54 53 55 53 53 55 53 51 48 42 41 42 38 35 33 30 28 27 26 27 33 38 32 23 27 35 33 31 32 32 37 39 36 36 38 40 41 41 45 46 41 40 44 47 48 51 55 56 56 54 52 51 53 53 53 55 55 53 50 46 44 44 46 47 49 50 50 50 51 51
17 16 16 16 17 20 23 25 26 27 28 31 36 39 44 53 58 59 59 59 62 66 68 69 67 65 62 55 50 52 52 51 51 48 48 50 46 41 40 39 36 32 29 27 27 26 26 30 36 35 27 26 33 31 30 32 33 36 38 35 36 38 40 41 41 46 51 47 40 41 44 45 48 52 56 56 53 50 51 53 53 52 54 55 53 50 46 42 38 39 43 48 47 46 49 50 49
15 15 15 16 16 16 18 21 25 28 30 30 35 40 44 52 58 60 60 59 60 64 67 70 69 66 65 57 49 50 50 50 49 48 50 50 46 42 39 38 36 33 30 27 25 25 25 27 33 36 30 26 31 30 28 33 34 35 36 34 35 38 40 40 41 48 55 50 41 40 41 42 45 49 54 53 50 49 52 54 54 53 53 52 51 49 46 41 37 35 37 41 41 40 43 44 45
15 16 17 15 15 15 15 18 25 29 31 31 35 41 45 49 55 59 60 60 59 62 68 72 71 67 66 59 50 48 49 50 52 53 54 49 45 43 38 37 36 34 32 28 24 24 25 25 29 34 32 26 28 28 27 34 35 32 34 33 33 37 39 40 41 45 48 44 39 38 39 41 42 44 48 50 49 50 53 54 53 54 54 51 47 45 44 40 36 34 32 33 33 33 34 35 37
15 17 17 15 14 13 11 15 24 29 31 34 37 42 46 47 51 55 57 59 58 59 66 72 72 69 67 62 54 49 48 51 54 55 55 51 46 43 39 37 36 35 34 29 24 24 24 25 26 32 33 28 26 24 24 31 33 30 30 29 31 36 38 38 39 41 43 39 36 35 35 38 41 43 43 45 49 51 51 52 52 52 51 48 43 41 41 38 33 32 30 28 27 27 28 30 33
14 15 16 16 13 12 11 13 21 28 30 35 39 41 43 45 47 51 54 57 55 55 63 70 71 69 66 63 59 55 52 50 50 51 52 50 47 43 39 36 36 36 35 30 25 24 24 24 25 29 33 29 24 21 21 25 28 28 28 26 28 34 37 38 39 41 42 37 35 34 32 34 38 41 41 43 49 50 46 48 52 50 46 46 46 43 41 39 34 32 31 28 26 26 26 29 31
15 13 14 15 12 11 12 11 17 26 29 31 35 38 41 45 47 48 50 54 51 50 61 68 68 67 64 62 61 59 55 49 46 48 49 49 49 46 41 37 36 37 37 34 29 25 24 23 24 26 30 30 25 20 18 19 23 26 28 26 26 29 33 36 39 42 41 37 34 32 30 32 34 37 40 43 49 50 44 43 48 47 45 46 46 44 41 40 36 33 34 31 30 29 27 28 31
16 13 13 14 12 11 12 12 15 22 26 27 31 37 42 46 48 46 45 51 51 49 56 64 66 66 64 63 61 59 58 51 44 46 48 48 48 47 43 39 36 36 38 37 33 28 26 24 23 24 27 30 27 22 17 16 19 24 29 31 28 28 29 31 35 39 40 36 31 31 29 29 32 34 37 41 46 48 44 42 44 46 47 47 45 44 43 40 36 33 34 33 32 32 29 31 35
17 15 13 12 12 12 12 13 15 18 23 25 28 35 39 43 46 45 44 48 52 50 50 56 62 63 64 64 61 60 61 56 46 44 45 45 45 45 44 41 38 37 38 39 36 32 29 26 24 23 25 28 28 25 19 15 16 20 26 29 28 27 26 27 31 34 38 36 31 30 29 26 30 33 35 38 40 43 44 45 47 47 49 48 47 45 43 40 36 34 34 34 35 34 32 34 38
18 16 15 13 11 11 11 13 14 17 21 23 25 33 40 45 47 45 43 44 48 50 48 50 54 60 64 64 61 60 61 59 52 47 46 44 45 44 41 40 38 36 37 39 39 36 32 29 26 24 24 26 27 26 22 17 15 17 20 22 24 26 24 24 28 29 32 36 33 30 29 26 27 30 35 38 37 39 43 47 49 49 48 47 46 45 43 41 36 34 37 38 38 37 35 35 36
19 16 16 15 12 10 10 11 13 15 17 21 23 27 35 43 45 44 42 42 46 48 48 49 51 56 61 62 61 60 59 59 55 49 47 46 44 41 38 37 36 36 36 37 39 39 37 33 30 26 24 25 24 24 24 20 16 16 17 20 24 27 26 24 26 27 28 34 38 36 30 26 27 28 33 38 39 38 40 43 47 49 49 49 48 46 45 43 38 34 37 39 38 37 36 35 35
18 16 16 16 14 11 10 10 12 14 16 19 22 23 29 35 39 42 44 44 46 48 45 47 51 52 54 57 60 60 59 58 56 51 48 47 44 40 38 38 36 36 34 34 36 38 40 38 35 30 26 25 23 22 23 21 19 17 16 19 25 28 28 25 25 27 27 31 39 40 32 28 29 29 31 36 38 37 36 38 41 44 47 51 52 49 46 43 38 33 33 36 37 37 35 35 36
17 17 17 17 16 14 11 10 13 16 17 17 20 23 27 32 35 40 46 46 45 44 42 42 47 48 48 53 60 61 59 59 57 53 49 46 44 42 42 42 40 37 35 34 34 36 38 40 39 36 31 27 24 20 21 21 19 18 16 17 22 28 30 27 25 26 28 29 33 36 33 30 30 30 32 35 36 34 34 34 36 39 41 45 50 50 48 45 40 34 30 30 36 37 35 36 37
17 17 17 17 18 17 15 13 13 17 20 18 18 22 25 30 34 35 40 43 40 39 39 39 43 45 46 52 58 59 59 58 57 54 51 47 45 45 46 45 43 40 38 36 34 32 35 38 40 40 37 32 27 21 19 20 19 19 17 16 19 24 28 28 24 25 27 28 28 31 33 32 32 31 32 34 35 33 32 31 33 35 36 39 44 46 47 47 44 40 32 26 30 34 36 38 38
18 18 18 18 20 19 18 16 15 18 21 17 17 20 21 26 32 34 35 35 35 34 34 36 40 44 46 48 49 52 56 57 56 54 51 48 46 46 47 46 44 43 40 36 33 31 31 34 37 40 40 37 33 26 20 19 19 18 18 17 17 20 23 23 22 22 24 26 26 27 30 32 33 32 31 32 33 32 32 30 30 33 33 35 41 44 46 47 44 42 36 28 26 29 35 39 37
19 19 18 19 22 23 22 20 18 18 18 14 14 19 21 21 26 30 31 32 33 33 31 30 33 39 42 41 41 45 51 54 53 52 50 48 46 45 46 44 44 44 41 38 34 31 29 30 34 38 40 40 38 32 24 19 17 17 18 18 17 17 18 18 19 20 20 23 24 24 26 28 30 31 29 30 32 31 31 30 30 31 32 33 38 42 46 46 43 41 37 32 29 27 31 35 36
20 21 20 21 23 25 27 25 22 20 18 12 11 16 19 18 18 21 24 28 29 32 35 32 29 31 33 34 36 42 48 51 52 50 49 48 46 45 45 44 44 45 43 40 37 34 30 28 30 34 38 40 40 36 30 23 17 16 16 17 17 16 15 16 16 18 18 19 20 20 20 22 23 25 25 27 30 31 30 30 30 31 32 32 34 39 43 44 43 41 37 34 32 29 28 29 33
21 22 22 21 21 23 26 26 24 22 19 14 11 12 14 13 14 16 21 24 22 24 32 35 32 30 29 30 32 37 44 48 49 49 48 48 46 46 45 44 45 45 44 42 40 37 33 30 29 31 34 38 40 39 35 28 21 16 15 16 17 16 15 15 15 16 16 16 17 18 18 17 17 19 21 23 26 29 30 30 29 29 30 31 31 34 39 40 42 41 37 34 33 31 30 29 29
23 22 22 21 18 18 20 22 23 23 23 21 16 12 11 9 10 11 16 23 24 21 23 32 37 35 34 33 31 34 41 43 43 46 47 47 46 46 45 44 45 45 44 43 41 39 37 35 32 32 34 35 37 39 37 32 25 20 16 15 16 16 15 15 14 14 15 15 16 17 18 17 16 17 19 20 21 24 27 30 30 27 27 28 29 30 33 35 38 39 36 34 34 33 33 31 28
23 22 23 21 17 16 18 19 21 23 29 29 23 17 14 10 9 7 8 15 23 23 20 25 35 37 38 36 33 38 43 41 41 44 46 46 44 45 47 46 45 45 44 43 42 42 41 40 37 35 35 35 35 36 38 36 30 24 19 16 15 16 15 14 14 14 15 15 15 16 16 17 16 16 17 18 19 20 23 28 30 28 25 25 26 28 30 31 33 35 34 33 34 33 34 33 31
25 25 24 20 17 16 18 22 24 26 30 29 26 23 20 16 13 10 8 7 12 17 17 23 32 35 36 34 31 35 38 38 41 45 47 48 46 46 48 47 45 44 45 45 44 44 42 42 41 38 37 36 35 35 36 37 35 29 23 18 16 16 15 15 14 14 14 14 15 15 15 15 15 15 16 16 18 19 20 24 28 29 26 24 24 26 29 30 31 32 31 32 34 35 35 34 33
26 28 28 26 26 25 21 22 25 28 31 31 26 25 25 22 18 14 12 9 8 9 14 26 35 33 32 32 28 29 29 33 42 46 46 49 48 48 48 47 46 44 44 45 45 44 43 43 42 39 38 37 36 35 35 36 36 32 26 21 18 16 15 15 15 15 14 14 14 14 14 14 14 15 16 16 17 18 19 20 22 26 27 26 24 24 25 27 29 31 31 31 33 34 34 33 33
30 31 32 30 34 36 31 26 23 24 31 33 30 27 25 26 23 16 15 14 11 9 11 25 38 36 32 33 32 30 27 30 41 45 45 47 49 49 49 47 45 44 43 44 43 42 42 42 43 42 39 38 37 36 35 35 35 34 30 25 20 18 16 16 16 15 15 14 14 14 14 14 13 14 16 16 16 17 19 20 19 22 25 27 26 24 23 25 27 29 30 31 31 31 31 30 30
36 35 37 36 36 38 38 36 29 25 27 31 33 32 27 25 25 22 19 18 17 15 12 19 33 39 39 40 41 39 32 31 39 42 43 46 48 48 48 47 46 45 43 42 41 41 41 42 43 43 42 41 39 36 34 33 34 34 33 29 24 21 18 17 16 15 15 14 13 13 13 13 13 14 16 16 16 17 19 21 21 20 22 25 27 25 24 24 25 27 28 29 30 30 29 29 28
39 37 39 40 39 39 41 43 37 29 27 27 31 34 28 24 26 24 22 22 21 21 18 16 23 36 44 45 44 43 36 34 39 41 42 45 46 46 46 46 45 44 43 43 42 42 42 43 44 45 44 43 41 38 35 32 32 33 33 31 28 25 22 19 17 16 15 14 13 13 13 13 13 14 16 16 16 16 18 21 24 22 21 22 24 25 26 25 24 25 26 28 29 29 28 28 28